Weather Roundup
Issued by NWS Chicago, IL

Home | Current Version | Previous Version | Graphics & Text | Print | Product List | Glossary On
Versions: 1 2 3 4 5 6 7 8 9 10 11 12 13 14 15 16 17 18 19 20 21 22 23 24 25 26 27 28 29 30 31 32 33 34 35 36 37 38 39 40 41 42 43 44 45 46 47 48 49 50
000
NZUS59 KLOT 231908
HRRLOT

CHICAGO AREA WEATHER ROUNDUP
NATIONAL WEATHER SERVICE CHICAGO/ROMEOVILLE IL
200 PM CDT WED AUG 23 2017

NOTE: "FAIR" INDICATES FEW OR NO CLOUDS BELOW 12,000 FEET WITH NO
SIGNIFICANT WEATHER AND/OR OBSTRUCTIONS TO VISIBILITY.

* THESE STATIONS ARE NOT UNDER NWS QUALITY CONTROL. THEY ALSO MAY NOT
  REPORT WEATHER SUCH AS PRECIPITATION OR FOG.

ILZ005-006-012>014-019>023-232000-
NORTHEAST ILLINOIS

CITY           SKY/WX    TMP DP  RH WIND       PRES   REMARKS
OHARE          MOSUNNY   77  49  37 NW10      30.03S
MIDWAY         MOSUNNY   78  50  37 W13G23    30.02F
AURORA         MOSUNNY   74  54  49 NW12G17   30.05F
LANSING*       PTSUNNY   74  59  59 NE7       30.03S
JOLIET*        MOSUNNY   77  54  45 NW8       30.04F
WAUKEGAN       PTSUNNY   74  52  46 NW12G18   30.03F
DUPAGE AIRPORT MOSUNNY   76  53  44 NW15G21   30.03F
WHEELING       MOSUNNY   73  52  47 NW13G20   30.04F
MORRIS*        PTSUNNY   75  55  50 NW8       30.04S VSB 1/2
LEWIS AIRPORT* MOSUNNY   74  54  49 NW13G18   30.04F
NORTHERLY ISL    N/A     70  56  61 NE9         N/A
$$

WIZ051-052-058>065-066-070>072-232000-
SOUTHEAST WISCONSIN

CITY           SKY/WX    TMP DP  RH WIND       PRES   REMARKS
MILWAUKEE      PTSUNNY   73  54  51 N10       30.03S
KENOSHA*       MOSUNNY   74  50  42 NW13      30.04S
RACINE*        PTSUNNY   74  52  46 VRB6      30.05S
WAUKESHA       PTSUNNY   68  48  49 NW6       30.05S
WEST BEND      PTSUNNY   70  50  49 N8G17     30.03S
$$

INZ001>003-010>013-019-020-232000-
NORTHWEST INDIANA

CITY           SKY/WX    TMP DP  RH WIND       PRES   REMARKS
GARY*          NOT AVBL
MICHIGAN CITY* NOT AVBL
RENSSELAER*    NOT AVBL
VALPARAISO     SUNNY     76  57  51 N10       30.04F
$$

LMZ740>746-232000-
SOUTHERN LAKE MICHIGAN

STATION/POSITION TIME  SKY/WX   TEMP WIND        PRES    VSBY
                                AIR  DIR/SP/G
                 (UTC)          (F)  (DEG/KT/KT) (MB)    (MI)
HARRISON CRIB    1840            69   30/ 12/ 13   N/A
BURNHAM HARBOR   NOT AVBL
CALUMET HARBOR   1848            70   30/  7/ 11 1016.5F
BURNS HARBOR     1840            69   20/ 11/ 14 1017.6F
MICHIGAN CITY    1840            68  350/ 16/ 20   N/A
$$

ABBREVIATIONS USED IN REMARKS
   TC - TEMPERATURE IN CELSIUS
  WCI - WIND CHILL INDEX
   HX - HEAT INDEX
  VSB - VISIBILITY
$$




USA.gov is the U.S. government's official web portal to all federal, state and local government web resources and services.